Omak, WA

9:34 AM PDT on June 27, 2017 (GMT -0700)
Omak

Weather History for KOMK - October, 2013

Change the Weather History Date:

Wednesday, October 2, 2013

  Actual Average Record
Temperature  
Mean Temperature 42 °F 56 °F  
Max Temperature 48 °F 70 °F 86 °F (1935)
Min Temperature 35 °F 41 °F 25 °F (1953)
Degree Days  
Heating Degree Days 23 10  
Month to date heating degree days 41 19  
Since 1 July heating degree days 174 180  
Cooling Degree Days 0 0  
Month to date cooling degree days 0 0  
Year to date cooling degree days 814 664  
Moisture  
Dew Point 38 °F    
Average Humidity 82    
Maximum Humidity 92    
Minimum Humidity 71    
Precipitation  
Precipitation 0.03 in 0.03 in 0.84 in (1957)
Month to date precipitation 0.03 0.05  
Year to date precipitation 8.86 9.91  
Sea Level Pressure  
Sea Level Pressure 30.14 in    
Wind  
Wind Speed 4 mph (NNW)    
Max Wind Speed 10 mph    
Max Gust Speed 14 mph    
Visibility 10 miles    
Events Rain    
T = Trace of Precipitation, MM = Missing Value Source: NWS Daily Summary

Daily Weather History Graph

Daily Weather History Graph

Search for Another Location

Airport or City:

Trip Planner

Search our weather history database for the weather conditions in past years. The results will help you decide how hot, cold, wet, or windy it might be!

Date:

Astronomy

Oct. 02, 2013 Rise Set
Actual Time 6:59 AM PDT 6:34 PM PDT
Civil Twilight 6:28 AM PDT 7:05 PM PDT
Nautical Twilight 5:51 AM PDT 7:41 PM PDT
Astronomical Twilight 5:14 AM PDT 8:18 PM PDT
Moon 4:28 AM PDT (10/2) 5:19 PM PDT (10/2)
Length of Visible Light 12h 37m
Length of Day
11h 34m
Waning Crescent, 6% of the Moon is Illuminated
Oct 2
Waning Crescent
Oct 4
New
Oct 11
First Quarter
Oct 18
Full
Oct 26
Last Quarter

Hourly Weather History & Observations

Time (PDT) Temp. Windchill Dew Point Humidity Pressure Visibility Wind Dir Wind Speed Gust Speed Precip Events Conditions
12:53 AM 35.1 °F 30.1 °F 30.9 °F 85% 30.11 in 10.0 mi WNW 5.8 mph - N/A   Clear
1:53 AM 36.0 °F 33.3 °F 32.0 °F 86% 30.13 in 10.0 mi NNW 3.5 mph - N/A   Scattered Clouds
2:53 AM 35.1 °F - 32.0 °F 89% 30.13 in 10.0 mi Calm Calm - N/A   Clear
3:53 AM 36.0 °F - 32.0 °F 86% 30.14 in 10.0 mi Calm Calm - N/A   Clear
4:53 AM 37.0 °F 33.3 °F 33.1 °F 86% 30.14 in 10.0 mi NW 4.6 mph - N/A   Mostly Cloudy
5:53 AM 39.0 °F - 35.1 °F 86% 30.14 in 10.0 mi Calm Calm - N/A   Overcast
6:53 AM 37.9 °F - 35.1 °F 89% 30.15 in 10.0 mi Calm Calm - N/A   Overcast
7:53 AM 39.9 °F - 36.0 °F 86% 30.16 in 10.0 mi Calm Calm - N/A   Overcast
8:53 AM 42.1 °F - 37.0 °F 82% 30.17 in 10.0 mi Calm Calm - 0.00 in   Overcast
9:53 AM 45.0 °F - 37.9 °F 76% 30.17 in 10.0 mi Calm Calm - N/A   Overcast
10:53 AM 46.0 °F 43.9 °F 37.0 °F 71% 30.16 in 10.0 mi South 4.6 mph - N/A   Overcast
11:53 AM 46.0 °F 44.8 °F 37.9 °F 73% 30.17 in 10.0 mi SSE 3.5 mph - 0.01 in Rain Light Rain
12:53 PM 46.0 °F - 37.9 °F 73% 30.15 in 10.0 mi Calm Calm - 0.00 in Rain Light Rain
1:53 PM 46.0 °F - 41.0 °F 83% 30.14 in 10.0 mi Calm Calm - 0.00 in Rain Light Rain
2:53 PM 46.9 °F - 41.0 °F 80% 30.13 in 10.0 mi North 4.6 mph - 0.01 in Rain Light Rain
3:53 PM 48.0 °F - 41.0 °F 77% 30.12 in 10.0 mi North 9.2 mph - 0.00 in Rain Light Rain
4:53 PM 46.9 °F - 41.0 °F 80% 30.12 in 10.0 mi North 8.1 mph - 0.00 in Rain Light Rain
5:53 PM 45.0 °F 41.2 °F 41.0 °F 86% 30.13 in 10.0 mi North 6.9 mph - 0.01 in   Overcast
6:53 PM 44.1 °F 40.1 °F 41.0 °F 89% 30.13 in 10.0 mi NNW 6.9 mph - 0.00 in Rain Light Rain
7:53 PM 44.1 °F 39.5 °F 42.1 °F 93% 30.14 in 10.0 mi NNW 8.1 mph - 0.00 in Rain Light Rain
8:53 PM 44.1 °F 40.8 °F 41.0 °F 89% 30.14 in 10.0 mi NW 5.8 mph - 0.00 in   Overcast
9:53 PM 43.0 °F 37.2 °F 39.9 °F 89% 30.15 in 10.0 mi North 10.4 mph - N/A   Scattered Clouds
10:53 PM 43.0 °F 38.2 °F 39.9 °F 89% 30.15 in 10.0 mi NNW 8.1 mph - N/A   Mostly Cloudy
11:53 PM 42.1 °F 37.7 °F 39.0 °F 89% 30.16 in 10.0 mi NW 6.9 mph - N/A   Mostly Cloudy